User: anonymous   Login
Location: Unspecified
(0.0000°N, 0.0000°E)
Time: 21:53:55
(UTC+00:00)
Language:

Explorer 27 - Orbit

View from above orbital plane
View from above orbital plane
View from above satellite
View from above satellite

Ground track
Ground track

The orbit data is extracted from the following two-line orbital elements,

1  1328U 65032A   17082.93228504 +.00000026 +00000-0 +17614-3 0  9991
2  1328 041.1846 042.1363 0247009 046.1061 315.9807 13.38519361536400
Epoch (UTC): 23 March 2017 22:22:29
Eccentricity: 0.0247009
inclination: 41.1846°
perigee height: 930 km
apogee height: 1300 km
right ascension of ascending node: 42.1363°
argument of perigee: 46.1061°
revolutions per day: 13.38519361
mean anomaly at epoch: 315.9807°
orbit number at epoch: 53640

The dashed part of the orbit path shows where the satellite is in the earth's shadow,  

DLR